Change the Weather History Date:

Friday, August 29, 2014

  Actual Average Record
Temperature  
Mean Temperature 93 °F -  
Max Temperature 109 °F 103 °F 116 °F (1998)
Min Temperature 77 °F 78 °F 66 °F (1975)
Cooling Degree Days 28    
Growing Degree Days 43 (Base 50)    
Moisture  
Dew Point 42 °F    
Average Humidity 19    
Maximum Humidity 35    
Minimum Humidity 7    
Precipitation  
Precipitation 0.00 in - - ()
Sea Level Pressure  
Sea Level Pressure 29.71 in    
Wind  
Wind Speed 3 mph (WNW)    
Max Wind Speed 12 mph    
Max Gust Speed -    
Visibility 10 miles    
Events      
Averages and records for this station are not official NWS values.
T = Trace of Precipitation, MM = Missing Value Source: NWS Daily Summary

Daily Weather History Graph

Daily Weather History Graph

Search for Another Location

Airport or City:

Trip Planner

Search our weather history database for the weather conditions in past years. The results will help you decide how hot, cold, wet, or windy it might be!

Date:

Astronomy

Aug. 29, 2014 Rise Set
Actual Time 6:10 AM PDT 7:08 PM PDT
Civil Twilight 5:45 AM PDT 7:33 PM PDT
Nautical Twilight 5:15 AM PDT 8:03 PM PDT
Astronomical Twilight 4:43 AM PDT 8:34 PM PDT
Moon 9:51 AM PDT (8/29) 9:22 PM PDT (8/29)
Length of Visible Light 13h 48m
Length of Day
12h 57m
Waxing Crescent, 16% of the Moon is Illuminated
Aug 29
Waxing Crescent
Sep 2
First Quarter
Sep 8
Full
Sep 15
Last Quarter
Sep 23
New

Hourly Weather History & Observations

Time (PDT) Temp. Dew Point Humidity Pressure Visibility Wind Dir Wind Speed Gust Speed Precip Events Conditions
12:52 AM 86.0 °F 44.1 °F 23% 29.74 in 10.0 mi North 4.6 mph - N/A   Clear
1:52 AM 82.9 °F 43.0 °F 24% 29.73 in 10.0 mi Calm Calm - N/A   Clear
2:52 AM 84.0 °F 43.0 °F 24% 29.73 in 10.0 mi SSW 4.6 mph - N/A   Clear
3:52 AM 84.0 °F 46.0 °F 26% 29.73 in 10.0 mi Calm Calm - N/A   Clear
4:52 AM 81.0 °F 44.1 °F 27% 29.73 in 10.0 mi NW 5.8 mph - N/A   Clear
5:52 AM 77.0 °F 46.0 °F 33% 29.75 in 10.0 mi Calm Calm - N/A   Clear
6:52 AM 78.1 °F 48.0 °F 35% 29.77 in 10.0 mi Calm Calm - N/A   Clear
8:52 AM 90.0 °F 44.1 °F 20% 29.78 in 10.0 mi Calm Calm - N/A   Clear
9:52 AM 96.1 °F 45.0 °F 17% 29.78 in 10.0 mi Calm Calm - N/A   Clear
10:52 AM 99.0 °F 45.0 °F 16% 29.77 in 10.0 mi Variable 4.6 mph - N/A   Clear
11:52 AM 105.1 °F 41.0 °F 11% 29.75 in 10.0 mi North 5.8 mph - N/A   Clear
1:52 PM 109.0 °F 39.0 °F 9% 29.70 in 10.0 mi Variable 4.6 mph - N/A   Clear
2:52 PM 109.9 °F 35.1 °F 8% 29.67 in 10.0 mi Variable 6.9 mph - N/A   Clear
3:52 PM 109.9 °F 32.0 °F 7% 29.65 in 10.0 mi South 10.4 mph - N/A   Clear
5:52 PM 108.0 °F 35.1 °F 8% 29.64 in 10.0 mi SE 11.5 mph - N/A   Clear
6:52 PM 105.1 °F 39.0 °F 10% 29.63 in 10.0 mi SE 5.8 mph - N/A   Clear
8:52 PM 96.1 °F 42.1 °F 15% 29.66 in 10.0 mi West 4.6 mph - N/A   Clear
9:52 PM 91.9 °F 42.1 °F 18% 29.67 in 10.0 mi WNW 3.5 mph - N/A   Clear
10:52 PM 89.1 °F 42.1 °F 19% 29.67 in 10.0 mi North 3.5 mph - N/A   Clear
11:52 PM 86.0 °F 45.0 °F 24% 29.67 in 10.0 mi Calm Calm - N/A   Clear